Surface/Precipitation History
02/08/2016 08:53  to  2/9/2016 08:53
Change End Date:
Date/Time
(MST)
Sf
Temp Chem Water Layer Surface Precipitation
Sfc Pvt Sub Frz Factor Pct Dpth DpthThk IcePct Cond Salin FI Type Intens Accum Rate
02/09/2016 08:43 Trace Moisture 32.4F - 34F - 95 - - - - 0 mhos 47 - None None - -
02/09/2016 08:39 Trace Moisture 32.2F - 34F - 95 - - - - 0 mhos 46 - None None - -
02/09/2016 08:29 Ice Watch 32.0F - 34F - 95 - - - - 0 mhos 44 - None None - -
02/09/2016 08:28 Trace Moisture 32.2F - 35F - 90 - - - - 0 mhos 43 - None None - -
02/09/2016 08:19 Ice Watch 31.5F - 34F - 85 - - - - 0 mhos 42 - None None - -
02/09/2016 08:13 Ice Watch 31.5F - 35F - 90 - - - - 0 mhos 40 - None None - -
02/09/2016 08:09 Ice Watch 31.5F - 35F - 95 - - - - 0 mhos 39 - None None - -
02/09/2016 07:59 Ice Watch 31.1F - 35F - 85 - - - - 0 mhos 37 - None None - -
02/09/2016 07:58 Ice Watch 31.1F - 35F - 90 - - - - 0 mhos 37 - None None - -
02/09/2016 07:49 Ice Watch 31.1F - 34F - 85 - - - - 0 mhos 35 - None None - -
02/09/2016 07:43 Ice Watch 31.1F - 35F - 80 - - - - 0 mhos 34 - None None - -
02/09/2016 07:39 Ice Watch 31.3F - 35F - 85 - - - - 0 mhos 33 - None None - -
02/09/2016 07:29 Ice Watch 31.3F - 34F - 90 - - - - 0 mhos 31 - None None - -
02/09/2016 07:28 Ice Watch 31.3F - 35F - 85 - - - - 0 mhos 31 - None None - -
02/09/2016 07:19 Ice Watch 31.5F - 34F - 85 - - - - 0 mhos 30 - None None - -
Date/Time
(MST)
Sf
Temp Chem Water Layer Surface Precipitation
Sfc Pvt Sub Frz Factor Pct Dpth DpthThk IcePct Cond Salin FI Type Intens Accum Rate
02/09/2016 07:13 Ice Watch 31.5F - 35F - 80 - - - - 0 mhos 29 - None None - -
02/09/2016 07:09 Ice Watch 31.5F - 35F - 75 - - - - 0 mhos 28 - None None - -
02/09/2016 06:59 Ice Watch 31.8F - 34F - 85 - - - - 0 mhos 27 - None None - -
02/09/2016 06:58 Ice Watch 31.6F - 35F - 85 - - - - 0 mhos 27 - None None - -
02/09/2016 06:48 Ice Watch 31.8F - 35F - 70 - - - - 0 mhos 26 - None None - -
02/09/2016 06:43 Ice Watch 32.0F - 35F - 60 - - - - 0 mhos 25 - None None - -
02/09/2016 06:38 Ice Watch 32.0F - 35F - 65 - - - - 0 mhos 25 - None None - -
02/09/2016 06:28 Trace Moisture 32.2F - 35F - 65 - - - - 0 mhos 24 - None None - -
02/09/2016 06:28 Trace Moisture 32.2F - 35F - 65 - - - - 0 mhos 24 - None None - -
02/09/2016 06:18 Trace Moisture 32.2F - 35F - 45 - - - - 0 mhos 24 - None None - -
02/09/2016 06:13 Trace Moisture 32.2F - 35F - 40 - - - - 0 mhos 23 - None None - -
02/09/2016 06:08 Trace Moisture 32.4F - 35F - 45 - - - - 0 mhos 23 - None None - -
02/09/2016 05:58 Trace Moisture 32.5F - 35F - 35 - - - - 0 mhos 22 - None None - -
02/09/2016 05:58 Trace Moisture 32.4F - 34F - 35 - - - - 0 mhos 22 - None None - -
02/09/2016 05:48 Trace Moisture 32.5F - 35F - 40 - - - - 0 mhos 21 - None None - -
Date/Time
(MST)
Sf
Temp Chem Water Layer Surface Precipitation
Sfc Pvt Sub Frz Factor Pct Dpth DpthThk IcePct Cond Salin FI Type Intens Accum Rate
02/09/2016 05:43 Trace Moisture 32.7F - 35F - 30 - - - - 0 mhos 21 - None None - -
02/09/2016 05:38 Trace Moisture 32.7F - 35F - 35 - - - - 0 mhos 21 - None None - -
02/09/2016 05:28 Trace Moisture 32.7F - 35F - 30 - - - - 0 mhos 20 - None None - -
02/09/2016 05:28 Trace Moisture 32.7F - 35F - 30 - - - - 0 mhos 20 - None None - -
02/09/2016 05:18 Trace Moisture 32.7F - 35F - 25 - - - - 0 mhos 19 - None None - -
02/09/2016 05:13 Trace Moisture 32.7F - 35F - 25 - - - - 0 mhos 19 - None None - -
02/09/2016 05:08 Trace Moisture 32.9F - 35F - 25 - - - - 0 mhos 18 - None None - -
02/09/2016 04:58 Trace Moisture 33.1F - 35F - 20 - - - - 0 mhos 18 - None None - -
02/09/2016 04:58 Trace Moisture 33.1F - 35F - 20 - - - - 0 mhos 18 - None None - -
02/09/2016 04:48 Trace Moisture 33.4F - 35F - 30 - - - - 0 mhos 17 - None None - -
02/09/2016 04:43 Trace Moisture 33.4F - 35F - 25 - - - - 0 mhos 16 - None None - -
02/09/2016 04:38 Trace Moisture 33.3F - 35F - 25 - - - - 0 mhos 16 - None None - -
02/09/2016 04:28 Trace Moisture 33.4F - 35F - 25 - - - - 0 mhos 15 - None None - -
02/09/2016 04:28 Trace Moisture 33.4F - 35F - 25 - - - - 0 mhos 15 - None None - -
02/09/2016 04:18 Trace Moisture 33.4F - 35F - 25 - - - - 0 mhos 14 - None None - -
Date/Time
(MST)
Sf
Temp Chem Water Layer Surface Precipitation
Sfc Pvt Sub Frz Factor Pct Dpth DpthThk IcePct Cond Salin FI Type Intens Accum Rate
02/09/2016 04:13 Trace Moisture 33.6F - 35F - 25 - - - - 0 mhos 13 - None None - -
02/09/2016 04:08 Trace Moisture 33.8F - 35F - 25 - - - - 0 mhos 13 - None None - -
02/09/2016 03:58 Trace Moisture 33.6F - 35F - 20 - - - - 0 mhos 12 - None None - -
02/09/2016 03:58 Trace Moisture 33.6F - 35F - 20 - - - - 0 mhos 12 - None None - -
02/09/2016 03:47 Trace Moisture 33.8F - 35F - 20 - - - - 0 mhos 11 - None None - -
02/09/2016 03:43 Trace Moisture 34.0F - 35F - 10 - - - - 0 mhos 11 - None None - -
02/09/2016 03:37 Trace Moisture 33.8F - 34F - 15 - - - - 0 mhos 10 - None None - -
02/09/2016 03:28 Trace Moisture 34.0F - 35F - 5 - - - - 0 mhos 9 - None None - -
02/09/2016 03:27 Trace Moisture 34.0F - 35F - 5 - - - - 0 mhos 9 - None None - -
02/09/2016 03:17 Trace Moisture 34.2F - 34F - 5 - - - - 0 mhos 9 - None None - -
02/09/2016 03:13 Trace Moisture 34.0F - 35F - 5 - - - - 0 mhos 8 - None None - -
02/09/2016 03:07 Trace Moisture 34.5F - 35F - 5 - - - - 0 mhos 8 - None None - -
02/09/2016 02:58 Trace Moisture 34.3F - 35F - 5 - - - - 0 mhos 8 - None None - -
02/09/2016 02:57 Trace Moisture 34.3F - 35F - 5 - - - - 0 mhos 8 - None None - -
02/09/2016 02:47 Trace Moisture 34.5F - 35F - 5 - - - - 0 mhos 7 - None None - -
Date/Time
(MST)
Sf
Temp Chem Water Layer Surface Precipitation
Sfc Pvt Sub Frz Factor Pct Dpth DpthThk IcePct Cond Salin FI Type Intens Accum Rate
02/09/2016 02:43 Trace Moisture 34.5F - 35F - 5 - - - - 0 mhos 7 - None None - -
02/09/2016 02:37 Trace Moisture 34.5F - 34F - 5 - - - - 0 mhos 7 - None None - -
02/09/2016 02:28 Trace Moisture 34.7F - 34F - 5 - - - - 0 mhos 6 - None None - -
02/09/2016 02:27 Trace Moisture 34.7F - 34F - 5 - - - - 0 mhos 6 - None None - -
02/09/2016 02:17 Trace Moisture 34.7F - 35F - 5 - - - - 0 mhos 6 - None None - -
02/09/2016 02:13 Trace Moisture 34.9F - 35F - 5 - - - - 0 mhos 6 - None None - -
02/09/2016 02:07 Trace Moisture 34.9F - 35F - 5 - - - - 0 mhos 6 - None None - -
02/09/2016 01:58 Trace Moisture 35.1F - 35F - 5 - - - - 0 mhos 5 - None None - -
02/09/2016 01:57 Trace Moisture 35.1F - 34F - 5 - - - - 0 mhos 5 - None None - -
02/09/2016 01:47 Trace Moisture 35.1F - 34F - 5 - - - - 0 mhos 5 - None None - -
02/09/2016 01:43 Trace Moisture 35.2F - 34F - 5 - - - - 0 mhos 5 - None None - -
02/09/2016 01:37 Trace Moisture 35.4F - 34F - 5 - - - - 0 mhos 4 - None None - -
02/09/2016 01:28 Trace Moisture 35.8F - 34F - 5 - - - - 0 mhos 4 - None None - -
02/09/2016 01:27 Trace Moisture 35.8F - 34F - 5 - - - - 0 mhos 4 - None None - -
02/09/2016 01:17 Trace Moisture 35.8F - 34F - 5 - - - - 0 mhos 4 - None None - -
Date/Time
(MST)
Sf
Temp Chem Water Layer Surface Precipitation
Sfc Pvt Sub Frz Factor Pct Dpth DpthThk IcePct Cond Salin FI Type Intens Accum Rate
02/09/2016 01:13 Trace Moisture 36.0F - 34F - 5 - - - - 0 mhos 4 - None None - -
02/09/2016 01:07 Trace Moisture 36.1F - 34F - 5 - - - - 0 mhos 4 - None None - -
02/09/2016 00:58 Trace Moisture 36.3F - 34F - 5 - - - - 0 mhos 3 - None None - -
02/09/2016 00:56 Trace Moisture 36.5F - 34F - 5 - - - - 0 mhos 3 - None None - -
02/09/2016 00:46 Trace Moisture 36.3F - 34F - 5 - - - - 0 mhos 3 - None None - -
02/09/2016 00:43 Trace Moisture 36.3F - 34F - 5 - - - - 0 mhos 3 - None None - -
02/09/2016 00:36 Trace Moisture 36.3F - 34F - 5 - - - - 0 mhos 3 - None None - -
02/09/2016 00:28 Trace Moisture 36.7F - 34F - 5 - - - - 0 mhos 3 - None None - -
02/09/2016 00:26 Trace Moisture 36.7F - 34F - 5 - - - - 0 mhos 3 - None None - -
02/09/2016 00:16 Trace Moisture 36.5F - 34F - 5 - - - - 0 mhos 3 - None None - -
02/09/2016 00:13 Trace Moisture 36.7F - 34F - 5 - - - - 0 mhos 2 - None None - -
02/09/2016 00:06 Trace Moisture 37.0F - 34F - 5 - - - - 0 mhos 2 - None None - -
02/08/2016 23:58 Trace Moisture 37.2F - 34F - 5 - - - - 0 mhos 2 - None None - -
02/08/2016 23:56 Trace Moisture 37.2F - 34F - 5 - - - - 0 mhos 2 - None None - -
02/08/2016 23:46 Trace Moisture 37.4F - 34F - 5 - - - - 0 mhos 2 - None None - -
Date/Time
(MST)
Sf
Temp Chem Water Layer Surface Precipitation
Sfc Pvt Sub Frz Factor Pct Dpth DpthThk IcePct Cond Salin FI Type Intens Accum Rate
02/08/2016 23:43 Trace Moisture 37.4F - 34F - 5 - - - - 0 mhos 2 - None None - -
02/08/2016 23:36 Trace Moisture 37.4F - 34F - 5 - - - - 0 mhos 2 - None None - -
02/08/2016 23:28 Trace Moisture 37.6F - 34F - 5 - - - - 0 mhos 2 - None None - -
02/08/2016 23:26 Trace Moisture 37.6F - 34F - 5 - - - - 0 mhos 2 - None None - -
02/08/2016 23:16 Trace Moisture 37.9F - 34F - 5 - - - - 0 mhos 2 - None None - -
02/08/2016 23:13 Trace Moisture 37.9F - 34F - 5 - - - - 0 mhos 2 - None None - -
02/08/2016 23:06 Trace Moisture 37.9F - 34F - 5 - - - - 0 mhos 2 - None None - -
02/08/2016 22:58 Trace Moisture 38.3F - 34F - 5 - - - - 0 mhos 2 - None None - -
02/08/2016 22:56 Trace Moisture 38.1F - 34F - 5 - - - - 0 mhos 2 - None None - -
02/08/2016 22:46 Trace Moisture 38.3F - 34F - 5 - - - - 0 mhos 1 - None None - -
02/08/2016 22:43 Trace Moisture 38.3F - 34F - 5 - - - - 0 mhos 1 - None None - -
02/08/2016 22:36 Trace Moisture 38.3F - 34F - 5 - - - - 0 mhos 1 - None None - -
02/08/2016 22:28 Trace Moisture 38.5F - 34F - 5 - - - - 0 mhos 1 - None None - -
02/08/2016 22:26 Trace Moisture 38.5F - 34F - 5 - - - - 0 mhos 1 - None None - -
02/08/2016 22:16 Dry 38.7F - 34F - - - - - - 0 mhos 1 - None None - -
Date/Time
(MST)
Sf
Temp Chem Water Layer Surface Precipitation
Sfc Pvt Sub Frz Factor Pct Dpth DpthThk IcePct Cond Salin FI Type Intens Accum Rate
02/08/2016 22:13 Dry 38.7F - 34F - - - - - - 0 mhos 1 - None None - -
02/08/2016 22:05 Dry 38.8F - 34F - - - - - - 0 mhos 1 - None None - -
02/08/2016 21:58 Dry 39.4F - 34F - - - - - - 0 mhos 1 - None None - -
02/08/2016 21:55 Dry 39.4F - 34F - - - - - - 0 mhos 1 - None None - -
02/08/2016 21:45 Dry 39.6F - 34F - - - - - - 0 mhos 1 - None None - -
02/08/2016 21:43 Dry 39.7F - 34F - - - - - - 0 mhos 1 - None None - -
02/08/2016 21:35 Dry 39.7F - 34F - - - - - - 0 mhos 1 - None None - -
02/08/2016 21:28 Dry 39.9F - 34F - - - - - - 0 mhos 1 - None None - -
02/08/2016 21:25 Dry 39.9F - 34F - - - - - - 0 mhos 1 - None None - -
02/08/2016 21:15 Dry 40.3F - 34F - - - - - - 0 mhos 1 - None None - -
02/08/2016 21:13 Dry 40.3F - 34F - - - - - - 0 mhos 1 - None None - -
02/08/2016 21:05 Dry 40.5F - 34F - - - - - - 0 mhos 1 - None None - -
02/08/2016 20:58 Dry 40.6F - 34F - - - - - - 0 mhos 1 - None None - -
02/08/2016 20:55 Dry 40.8F - 34F - - - - - - 0 mhos 1 - None None - -
02/08/2016 20:45 Dry 41.2F - 34F - - - - - - 0 mhos 1 - None None - -
Date/Time
(MST)
Sf
Temp Chem Water Layer Surface Precipitation
Sfc Pvt Sub Frz Factor Pct Dpth DpthThk IcePct Cond Salin FI Type Intens Accum Rate
02/08/2016 20:43 Dry 41.4F - 34F - - - - - - 0 mhos 1 - None None - -
02/08/2016 20:35 Dry 41.5F - 34F - - - - - - 0 mhos 1 - None None - -
02/08/2016 20:28 Dry 41.4F - 33F - - - - - - 0 mhos 1 - None None - -
02/08/2016 20:25 Dry 41.9F - 33F - - - - - - 0 mhos 1 - None None - -
02/08/2016 20:15 Dry 42.1F - 33F - - - - - - 0 mhos 1 - None None - -
02/08/2016 20:13 Dry 42.1F - 33F - - - - - - 0 mhos 1 - None None - -
02/08/2016 20:05 Dry 42.4F - 33F - - - - - - 0 mhos 1 - None None - -
02/08/2016 19:58 Dry 42.6F - 33F - - - - - - 0 mhos 1 - None None - -
02/08/2016 19:55 Dry 42.6F - 33F - - - - - - 0 mhos 1 - None None - -
02/08/2016 19:45 Dry 43.0F - 33F - - - - - - 0 mhos 1 - None None - -
02/08/2016 19:43 Dry 43.0F - 33F - - - - - - 0 mhos 1 - None None - -
02/08/2016 19:35 Dry 43.3F - 33F - - - - - - 0 mhos 1 - None None - -
02/08/2016 19:28 Dry 43.3F - 33F - - - - - - 0 mhos 1 - None None - -
02/08/2016 19:25 Dry 43.7F - 33F - - - - - - 0 mhos 1 - None None - -
02/08/2016 19:14 Dry 44.1F - 33F - - - - - - 0 mhos 0 - None None - -
Date/Time
(MST)
Sf
Temp Chem Water Layer Surface Precipitation
Sfc Pvt Sub Frz Factor Pct Dpth DpthThk IcePct Cond Salin FI Type Intens Accum Rate
02/08/2016 19:13 Dry 44.1F - 33F - - - - - - 0 mhos 0 - None None - -
02/08/2016 19:04 Dry 44.2F - 33F - - - - - - 0 mhos 0 - None None - -
02/08/2016 18:58 Dry 44.6F - 33F - - - - - - 0 mhos 0 - None None - -
02/08/2016 18:54 Dry 44.8F - 33F - - - - - - 0 mhos 0 - None None - -
02/08/2016 18:44 Dry 45.0F - 33F - - - - - - 0 mhos 0 - None None - -
02/08/2016 18:43 Dry 45.1F - 33F - - - - - - 0 mhos 0 - None None - -
02/08/2016 18:34 Dry 45.1F - 33F - - - - - - 0 mhos 0 - None None - -
02/08/2016 18:28 Dry 45.7F - 33F - - - - - - 0 mhos 0 - None None - -
02/08/2016 18:24 Dry 45.7F - 33F - - - - - - 0 mhos 0 - None None - -
02/08/2016 18:14 Dry 46.8F - 33F - - - - - - 0 mhos 0 - None None - -
02/08/2016 18:13 Dry 46.6F - 33F - - - - - - 0 mhos 0 - None None - -
02/08/2016 18:04 Dry 46.8F - 33F - - - - - - 0 mhos 0 - None None - -
02/08/2016 17:58 Dry 46.9F - 33F - - - - - - 0 mhos 0 - None None - -
02/08/2016 17:54 Dry 46.9F - 33F - - - - - - 0 mhos 0 - None None - -
02/08/2016 17:44 Dry 48.0F - 33F - - - - - - 0 mhos 0 - None None - -
Date/Time
(MST)
Sf
Temp Chem Water Layer Surface Precipitation
Sfc Pvt Sub Frz Factor Pct Dpth DpthThk IcePct Cond Salin FI Type Intens Accum Rate
02/08/2016 17:43 Dry 48.2F - 33F - - - - - - 0 mhos 0 - None None - -
02/08/2016 17:34 Dry 49.1F - 33F - - - - - - 0 mhos 0 - None None - -
02/08/2016 17:28 Dry 49.5F - 33F - - - - - - 0 mhos 0 - None None - -
02/08/2016 17:24 Dry 50.0F - 33F - - - - - - 0 mhos 0 - None None - -
02/08/2016 17:14 Dry 50.7F - 33F - - - - - - 0 mhos 0 - None None - -
02/08/2016 17:13 Dry 50.7F - 33F - - - - - - 0 mhos 0 - None None - -
02/08/2016 17:04 Dry 51.4F - 33F - - - - - - 0 mhos 0 - None None - -
02/08/2016 16:58 Dry 52.3F - 33F - - - - - - 0 mhos 0 - None None - -
02/08/2016 16:54 Dry 52.9F - 33F - - - - - - 0 mhos 0 - None None - -
02/08/2016 16:44 Dry 54.0F - 33F - - - - - - 0 mhos 0 - None None - -
02/08/2016 16:43 Dry 54.1F - 33F - - - - - - 0 mhos 0 - None None - -
02/08/2016 16:34 Dry 55.2F - 33F - - - - - - 0 mhos 0 - None None - -
02/08/2016 16:28 Dry 55.9F - 33F - - - - - - 0 mhos 0 - None None - -
02/08/2016 16:23 Dry 55.9F - 33F - - - - - - 0 mhos 0 - None None - -
02/08/2016 16:13 Dry 56.8F - 33F - - - - - - 0 mhos 0 - None None - -
Date/Time
(MST)
Sf
Temp Chem Water Layer Surface Precipitation
Sfc Pvt Sub Frz Factor Pct Dpth DpthThk IcePct Cond Salin FI Type Intens Accum Rate
02/08/2016 16:13 Dry 57.0F - 33F - - - - - - 0 mhos 0 - None None - -
02/08/2016 16:03 Dry 57.4F - 33F - - - - - - 0 mhos 0 - None None - -
02/08/2016 15:58 Dry 57.2F - 33F - - - - - - 0 mhos 0 - None None - -
02/08/2016 15:53 Dry 57.4F - 33F - - - - - - 0 mhos 0 - None None - -
02/08/2016 15:43 Dry 58.8F - 33F - - - - - - 0 mhos 0 - None None - -
02/08/2016 15:43 Dry 59.2F - 33F - - - - - - 0 mhos 0 - None None - -
02/08/2016 15:33 Dry 60.4F - 33F - - - - - - 0 mhos 0 - None None - -
02/08/2016 15:28 Dry 60.4F - 33F - - - - - - 0 mhos 0 - None None - -
02/08/2016 15:23 Dry 60.4F - 33F - - - - - - 0 mhos 0 - None None - -
02/08/2016 15:13 Dry 60.6F - 33F - - - - - - 0 mhos 0 - None None - -
02/08/2016 15:13 Dry 60.6F - 33F - - - - - - 0 mhos 0 - None None - -
02/08/2016 15:03 Dry 61.2F - 33F - - - - - - 0 mhos 0 - None None - -
02/08/2016 14:58 Dry 61.2F - 33F - - - - - - 0 mhos 0 - None None - -
02/08/2016 14:53 Dry 61.3F - 33F - - - - - - 0 mhos 0 - None None - -
02/08/2016 14:43 Dry 61.3F - 33F - - - - - - 0 mhos 0 - None None - -
Date/Time
(MST)
Sf
Temp Chem Water Layer Surface Precipitation
Sfc Pvt Sub Frz Factor Pct Dpth DpthThk IcePct Cond Salin FI Type Intens Accum Rate
02/08/2016 14:43 Dry 61.3F - 33F - - - - - - 0 mhos 0 - None None - -
02/08/2016 14:33 Dry 61.2F - 33F - - - - - - 0 mhos 0 - None None - -
02/08/2016 14:28 Dry 61.5F - 33F - - - - - - 0 mhos 0 - None None - -
02/08/2016 14:23 Dry 61.5F - 33F - - - - - - 0 mhos 0 - None None - -
02/08/2016 14:13 Dry 60.6F - 33F - - - - - - 0 mhos 0 - None None - -
02/08/2016 14:13 Dry 60.6F - 33F - - - - - - 0 mhos 0 - None None - -
02/08/2016 14:03 Dry 61.2F - 33F - - - - - - 0 mhos 0 - None None - -
02/08/2016 13:58 Dry 60.4F - 33F - - - - - - 0 mhos 0 - None None - -
02/08/2016 13:53 Dry 60.3F - 33F - - - - - - 0 mhos 0 - None None - -
02/08/2016 13:43 Dry 59.5F - 33F - - - - - - 0 mhos 0 - None None - -
02/08/2016 13:43 Dry 59.5F - 33F - - - - - - 0 mhos 0 - None None - -
02/08/2016 13:33 Dry 58.1F - 33F - - - - - - 0 mhos 0 - None None - -
02/08/2016 13:28 Dry 57.2F - 33F - - - - - - 0 mhos 0 - None None - -
02/08/2016 13:23 Dry 56.5F - 33F - - - - - - 0 mhos 0 - None None - -
02/08/2016 13:13 Dry 54.5F - 33F - - - - - - 0 mhos 0 - None None - -
Date/Time
(MST)
Sf
Temp Chem Water Layer Surface Precipitation
Sfc Pvt Sub Frz Factor Pct Dpth DpthThk IcePct Cond Salin FI Type Intens Accum Rate
02/08/2016 13:12 Dry 54.5F - 33F - - - - - - 0 mhos 0 - None None - -
02/08/2016 13:02 Dry 51.8F - 33F - - - - - - 0 mhos 0 - None None - -
02/08/2016 12:58 Dry 48.9F - 33F - - - - - - 0 mhos 0 - None None - -
02/08/2016 12:52 Dry 44.6F - 33F - - - - - - 0 mhos 0 - None None - -
02/08/2016 12:43 Dry 43.9F - 33F - - - - - - 0 mhos 0 - None None - -
02/08/2016 12:42 Dry 44.2F - 33F - - - - - - 0 mhos 0 - None None - -
02/08/2016 12:32 Dry 44.6F - 33F - - - - - - 0 mhos 0 - None None - -
02/08/2016 12:28 Dry 44.1F - 33F - - - - - - 0 mhos 0 - None None - -
02/08/2016 12:22 Dry 44.1F - 33F - - - - - - 0 mhos 0 - None None - -
02/08/2016 12:13 Dry 44.2F - 33F - - - - - - 0 mhos 0 - None None - -
02/08/2016 12:12 Dry 44.1F - 33F - - - - - - 0 mhos 0 - None None - -
02/08/2016 12:02 Dry 44.2F - 33F - - - - - - 0 mhos 0 - None None - -
02/08/2016 11:58 Dry 44.6F - 33F - - - - - - 0 mhos 0 - None None - -
02/08/2016 11:52 Dry 45.0F - 33F - - - - - - 0 mhos 0 - None None - -
02/08/2016 11:43 Dry 46.2F - 33F - - - - - - 0 mhos 0 - None None - -
Date/Time
(MST)
Sf
Temp Chem Water Layer Surface Precipitation
Sfc Pvt Sub Frz Factor Pct Dpth DpthThk IcePct Cond Salin FI Type Intens Accum Rate
02/08/2016 11:42 Dry 46.4F - 33F - - - - - - 0 mhos 0 - None None - -
02/08/2016 11:32 Dry 48.2F - 33F - - - - - - 0 mhos 0 - None None - -
02/08/2016 11:28 Dry 46.9F - 33F - - - - - - 0 mhos 0 - None None - -
02/08/2016 11:22 Dry 45.0F - 33F - - - - - - 0 mhos 0 - None None - -
02/08/2016 11:13 Dry 41.9F - 33F - - - - - - 0 mhos 1 - None None - -
02/08/2016 11:12 Dry 41.9F - 33F - - - - - - 0 mhos 1 - None None - -
02/08/2016 11:02 Dry 41.2F - 33F - - - - - - 0 mhos 1 - None None - -
02/08/2016 10:58 Dry 41.4F - 33F - - - - - - 0 mhos 1 - None None - -
02/08/2016 10:52 Dry 42.4F - 33F - - - - - - 0 mhos 1 - None None - -
02/08/2016 10:43 Dry 38.3F - 33F - - - - - - 0 mhos 1 - None None - -
02/08/2016 10:42 Dry 38.1F - 33F - - - - - - 0 mhos 1 - None None - -
02/08/2016 10:32 Dry 37.6F - 33F - - - - - - 0 mhos 1 - None None - -
02/08/2016 10:28 Dry 37.2F - 33F - - - - - - 0 mhos 2 - None None - -
02/08/2016 10:21 Dry 36.5F - 33F - - - - - - 0 mhos 2 - None None - -
02/08/2016 10:13 Dry 36.1F - 33F - - - - - - 0 mhos 3 - None None - -
Date/Time
(MST)
Sf
Temp Chem Water Layer Surface Precipitation
Sfc Pvt Sub Frz Factor Pct Dpth DpthThk IcePct Cond Salin FI Type Intens Accum Rate
02/08/2016 10:11 Dry 35.8F - 33F - - - - - - 0 mhos 3 - None None - -
02/08/2016 10:01 Dry 33.8F - 33F - - - - - - 0 mhos 4 - None None - -
02/08/2016 09:58 Dry 32.9F - 33F - - - - - - 0 mhos 4 - None None - -
02/08/2016 09:51 Dry 32.7F - 33F - - - - - - 0 mhos 4 - None None - -
02/08/2016 09:43 Ice Watch 31.8F - 33F - 5 - - - - 0 mhos 4 - None None - -
02/08/2016 09:41 Ice Watch 32.0F - 33F - 5 - - - - 0 mhos 4 - None None - -
02/08/2016 09:31 Ice Watch 31.1F - 33F - 5 - - - - 0 mhos 5 - None None - -
02/08/2016 09:28 Ice Watch 30.9F - 33F - 5 - - - - 0 mhos 5 - None None - -
02/08/2016 09:21 Ice Watch 30.9F - 33F - 5 - - - - 0 mhos 5 - None None - -
02/08/2016 09:13 Ice Watch 30.7F - 33F - 5 - - - - 0 mhos 5 - None None - -
02/08/2016 09:11 Ice Watch 30.6F - 33F - 5 - - - - 0 mhos 5 - None None - -
02/08/2016 09:01 Ice Watch 30.7F - 33F - 5 - - - - 0 mhos 5 - None None - -
02/08/2016 08:58 Ice Watch 30.7F - 33F - 5 - - - - 0 mhos 5 - None None - -
Change End Date:

Copyright © 1998-2015 Vaisala, Inc.
All Rights Reserved
Send comments about the data to:
SCAN Web ® is a registered trademark of Vaisala, Inc.
SCAN Web Version 6.0